Caldwell, NJ

6:02 PM EDT on July 20, 2019 (GMT -0400)
Essex County

Weather History for KCDW - May, 2019

Change the Weather History Date:

Tuesday, May 21, 2019

  Actual Average Record
Temperature  
Mean Temperature 64 °F -  
Max Temperature 73 °F 74 °F 92 °F (1962)
Min Temperature 57 °F 49 °F 34 °F (2002)
Growing Degree Days 14 (Base 50)    
Moisture  
Dew Point 38 °F    
Average Humidity 39    
Maximum Humidity 58    
Minimum Humidity 23    
Precipitation  
Precipitation 0.00 in - - ()
Sea Level Pressure  
Sea Level Pressure 29.97 in    
Wind  
Wind Speed 10 mph (NW)    
Max Wind Speed 18 mph    
Max Gust Speed 31 mph    
Visibility 10 miles    
Events      
Averages and records for this station are not official NWS values.
T = Trace of Precipitation, MM = Missing Value Source: NWS Daily Summary

Daily Weather History Graph

Daily Weather History Graph

Search for Another Location

Airport or City:

Astronomy

May. 21, 2019 Rise Set
Actual Time 5:34 AM EDT 8:13 PM EDT
Civil Twilight 5:02 AM EDT 8:45 PM EDT
Nautical Twilight 4:23 AM EDT 9:25 PM EDT
Astronomical Twilight 3:38 AM EDT 10:10 PM EDT
Moon 11:07 PM EDT (5/21) 7:48 AM EDT (5/21)
Length of Visible Light 15h 42m
Length of Day
14h 38m
Waning Gibbous, 91% of the Moon is Illuminated
May 21
Waning Gibbous
May 26
Last Quarter
Jun 3
New
Jun 10
First Quarter
Jun 17
Full

Hourly Weather History & Observations

Time (EDT) Temp. Dew Point Humidity Pressure Visibility Wind Dir Wind Speed Gust Speed Precip Events Conditions
12:53 AM 66.9 °F 50.0 °F 54% 29.84 in 10.0 mi NNW 4.6 mph - N/A   Clear
1:53 AM 64.9 °F 50.0 °F 58% 29.84 in 10.0 mi NW 8.1 mph - N/A   Clear
2:53 AM 63.0 °F 44.1 °F 50% 29.87 in 10.0 mi NNW 10.4 mph 19.6 mph N/A   Clear
3:53 AM 61.0 °F 44.1 °F 54% 29.87 in 10.0 mi WNW 5.8 mph - N/A   Scattered Clouds
4:53 AM 60.1 °F 39.9 °F 47% 29.90 in 10.0 mi WNW 11.5 mph 20.7 mph N/A   Mostly Cloudy
5:53 AM 60.1 °F 41.0 °F 49% 29.91 in 10.0 mi NW 11.5 mph - N/A   Overcast
6:53 AM 57.9 °F 41.0 °F 53% 29.94 in 10.0 mi NW 13.8 mph 26.5 mph N/A   Overcast
7:53 AM 57.0 °F 39.0 °F 51% 29.97 in 10.0 mi NW 17.3 mph 26.5 mph N/A   Overcast
8:53 AM 57.9 °F 36.0 °F 44% 29.97 in 10.0 mi NNW 11.5 mph 20.7 mph N/A   Partly Cloudy
9:53 AM 60.1 °F 37.0 °F 42% 29.98 in 10.0 mi NW 12.7 mph 24.2 mph N/A   Partly Cloudy
10:53 AM 62.1 °F 37.0 °F 39% 29.98 in 10.0 mi North 9.2 mph 19.6 mph N/A   Clear
11:53 AM 64.9 °F 37.0 °F 36% 29.97 in 10.0 mi NW 13.8 mph 25.3 mph N/A   Clear
12:53 PM 68.0 °F 39.0 °F 35% 29.96 in 10.0 mi NW 13.8 mph 20.7 mph N/A   Clear
1:53 PM 70.0 °F 39.0 °F 32% 29.94 in 10.0 mi NW 17.3 mph 26.5 mph N/A   Clear
2:53 PM 71.1 °F 37.9 °F 30% 29.94 in 10.0 mi NNW 12.7 mph 25.3 mph N/A   Clear
3:53 PM 72.0 °F 35.1 °F 26% 29.94 in 10.0 mi NNW 17.3 mph 28.8 mph N/A   Clear
4:53 PM 72.0 °F 34.0 °F 25% 29.95 in 10.0 mi NW 16.1 mph 31.1 mph N/A   Clear
5:53 PM 72.0 °F 32.0 °F 23% 29.98 in 10.0 mi NW 18.4 mph 28.8 mph N/A   Clear
6:53 PM 71.1 °F 30.9 °F 23% 29.99 in 10.0 mi NW 11.5 mph 21.9 mph N/A   Clear
7:10 PM 70.0 °F 32.0 °F 25% 29.99 in 10.0 mi NW 11.5 mph 19.6 mph N/A   Partly Cloudy
7:53 PM 68.0 °F 33.1 °F 27% 30.04 in 10.0 mi Variable 6.9 mph 17.3 mph N/A   Clear
8:53 PM 64.0 °F 35.1 °F 34% 30.08 in 10.0 mi Variable 4.6 mph - N/A   Clear
9:53 PM 62.1 °F 35.1 °F 37% 30.12 in 10.0 mi Variable 4.6 mph - N/A   Clear
10:53 PM 61.0 °F 35.1 °F 38% 30.14 in 10.0 mi Variable 4.6 mph - N/A   Clear
11:53 PM 59.0 °F 36.0 °F 42% 30.14 in 10.0 mi Calm Calm - N/A   Clear